Home > Weather > Ndjamena > Past weeks

Flag for Chad Weather for the Past 2 Weeks in Ndjamena, Chad

Now
91 °F

Low level haze.


Feels Like: 87 °F
Forecast: 62 / 89 °F
Wind: 16 mph from Northeast

Location: Ndjamena

Current Time: Feb 6, 2016 at 3:45:31 PM

Latest Report: Feb 6, 2016 at 3:00 PM


Visibility: 2 mi

Pressure: 29.95 "Hg

Humidity: 9%

Dew point: 25 °F

Location of NdjamenaLocation

Historic Weather in Ndjamena — Graph

°F

Ndjamena Temperature Yesterday

Maximum temperature yesterday: 93 °F (at 2:00 PM)
Minimum temperature yesterday: 61 °F (at 4:00 AM)
Average temperature yesterday: 78 °F

High & Low Weather Summary for the Past Weeks

 TemperatureHumidityPressure
High95 °F (Feb 3, 2:00 PM)38% (Jan 25, 7:00 AM)30.21 "Hg (Jan 25, 7:00 AM)
Low52 °F (Jan 31, 7:00 AM)5% (Jan 22, 3:00 PM)29.83 "Hg (Feb 3, 4:00 PM)
Average72 °F17%30.02 "Hg
* Reported Jan 22 2:00 PM — Feb 6 2:00 PM, Ndjamena, Weather by CustomWeather, © 2016

Note: Actual official high and low records may vary slightly from our data, if they occured in-between our weather recording intervals... More about our weather records

Advertising

Ndjamena Weather History for the Previous 24 Hours

 ConditionsComfort  
Time TempWeatherWind HumidityBarometerVisibility
2:00 PM
Sat, Feb 6
91 °FLow level haze.16 mph9%29.95 "Hg1 mi
1:00 PM90 °FLow level haze.16 mph10%29.98 "Hg1 mi
12:00 PM86 °FLow level haze.17 mph11%30.04 "Hg1 mi
11:00 AM82 °FLow level haze.18 mph13%30.01 "Hg1 mi
10:00 AM79 °FLow level haze.22 mph16%30.01 "Hg1 mi
9:00 AM75 °FLow level haze.20 mph19%30.04 "Hg1 mi
8:00 AM70 °FDuststorm.14 mph23%30.01 "Hg1 mi
6:00 AM68 °FDuststorm.5 mph21%29.98 "Hg1 mi
5:00 AM70 °FDuststorm.5 mph20%29.95 "Hg1 mi
4:00 AM72 °FDuststorm.7 mph17%29.98 "Hg1 mi
3:00 AM73 °FDuststorm.9 mph16%29.95 "Hg1 mi
2:00 AM75 °FDuststorm.9 mph14%29.98 "Hg1 mi
1:00 AM77 °FDuststorm.10 mph14%29.98 "Hg1 mi
12:00 AM79 °FDuststorm.9 mph13%30.01 "Hg1 mi
11:00 PM
Fri, Feb 5
79 °FDuststorm.10 mph12%30.01 "Hg1 mi
10:00 PM79 °FDuststorm.10 mph15%29.98 "Hg2 mi
9:00 PM79 °FClear.8 mph15%29.95 "Hg4 mi
8:00 PM81 °FClear.7 mph14%29.92 "Hg4 mi
7:00 PM81 °FClear.6 mph13%29.89 "Hg4 mi
6:00 PM88 °FClear.9 mph10%29.86 "Hg4 mi
5:00 PM91 °FClear.10 mph9%29.86 "Hg4 mi
4:00 PM93 °FClear.10 mph8%29.83 "Hg5 mi
3:00 PM93 °FClear.14 mph8%29.83 "Hg5 mi
Weather by CustomWeather, © 2016

See weather overviewHow to use our weather pages